Regional Weather Roundup
Issued by NWS Charleston, WV

Home | Current Version | Previous Version | Graphics & Text | Print | Product List | Glossary On
Versions: 1 2 3 4 5 6 7 8 9 10 11 12 13 14 15 16 17 18 19 20 21 22 23 24 25 26 27 28 29 30 31 32 33 34 35 36 37 38 39 40 41 42 43 44 45 46 47 48 49 50
000
ASUS41 KRLX 282310
RWRRLX
West Virginia Regional Weather Roundup
National Weather Service Charleston WV
600 PM EST SAT FEB 28 2015

Note: "fair" indicates few or no clouds below 12,000 feet with no
significant weather and/or obstructions to visibility.

WVZ003-010000-
Northern Panhandle of West Virginia

CITY           SKY/WX    TMP DP  RH WIND       PRES   REMARKS
WHEELING       CLEAR     25   2  37 E7        30.59F
$$

WVZ009-010000-
Northwest West Virginia

CITY           SKY/WX    TMP DP  RH WIND       PRES   REMARKS
PARKERSBURG    CLOUDY    32   3  29 CALM      30.62F
$$

WVZ006-010000-
Western West Virginia

CITY           SKY/WX    TMP DP  RH WIND       PRES   REMARKS
HUNTINGTON     PTCLDY    35  13  40 NE7       30.55F
$$

WVZ015-010000-
West Central West Virginia

CITY           SKY/WX    TMP DP  RH WIND       PRES   REMARKS
CHARLESTON     PTCLDY    37  16  42 NE5       30.55F
$$

WVZ022-031-010000-
North Central West Virginia

CITY           SKY/WX    TMP DP  RH WIND       PRES   REMARKS
CLARKSBURG     MOCLDY    30   2  30 N3        30.58F
MORGANTOWN     MOCLDY    30   4  33 N5        30.59F
$$

WVZ025-035-042-045-010000-
Southern West Virginia

CITY           SKY/WX    TMP DP  RH WIND       PRES   REMARKS
BECKLEY        PTCLDY    33  15  47 SE9       30.50S
LOGAN          MOCLDY    39  18  41 CALM      30.47F
BLUEFIELD      CLOUDY    37  18  46 SE7       30.50S
LEWISBURG      PTCLDY    34  13  42 CALM      30.55R
$$

WVZ047-010000-
Northern Mountains of West Virginia

CITY           SKY/WX    TMP DP  RH WIND       PRES   REMARKS
ELKINS         CLEAR     32   7  35 NW3       30.52F
$$

WVZ052-010000-
Eastern Panhandle of West Virginia

CITY           SKY/WX    TMP DP  RH WIND       PRES   REMARKS
MARTINSBURG    CLEAR     27   2  34 S5        30.71S
PETERSBURG     CLEAR     33   7  32 N3        30.64S
$$


USA.gov is the U.S. government's official web portal to all federal, state and local government web resources and services.